Weather History for Melbourne, FL

Change the Weather History Date:

Friday, October 26, 2012

  Actual Average Record
Temperature  
Mean Temperature 74 °F 74 °F  
Max Temperature 79 °F 82 °F 90 °F (1942)
Min Temperature 68 °F 65 °F 47 °F (2005)
Degree Days  
Heating Degree Days 0 0  
Month to date heating degree days 0 0  
Since 1 July heating degree days 0 0  
Cooling Degree Days 9 9  
Month to date cooling degree days 350 303  
Year to date cooling degree days 3324 2995  
Growing Degree Days 24 (Base 50)    
Moisture  
Dew Point 69 °F    
Average Humidity 84    
Maximum Humidity 100    
Minimum Humidity 67    
Precipitation  
Precipitation 1.33 in 0.12 in 1.69 in (1952)
Month to date precipitation 3.00 4.48  
Year to date precipitation 36.87 45.97  
Sea Level Pressure  
Sea Level Pressure 29.63 in    
Wind  
Wind Speed 21 mph (NNE)    
Max Wind Speed 41 mph    
Max Gust Speed 56 mph    
Visibility 6 miles    
Events Fog , Rain    
T = Trace of Precipitation, MM = Missing Value Source: NWS Daily Summary

Daily Weather History Graph

Daily Weather History Graph

Search for Another Location

Airport:

Trip Planner

Search our weather history database for the weather conditions in past years. The results will help you decide how hot, cold, wet, or windy it might be!

Date:

Astronomy

Oct. 26, 2012 Rise Set
Actual Time 7:30 AM EDT 6:42 PM EDT
Civil Twilight 7:06 AM EDT 7:06 PM EDT
Nautical Twilight 6:38 AM EDT 7:34 PM EDT
Astronomical Twilight 6:11 AM EDT 8:01 PM EDT
Moon 4:47 PM EDT (10/26) 4:37 AM EDT (10/26)
Length of Visible Light 12h 00m
Length of Day
11h 12m
Waxing Gibbous, 91% of the Moon is Illuminated
Oct 26
Waxing Gibbous
Oct 29
Full
Nov 6
Last Quarter
Nov 13
New
Nov 20
First Quarter

Hourly Weather History & Observations

Time (EDT) Temp. Dew Point Humidity Pressure Visibility Wind Dir Wind Speed Gust Speed Precip Events Conditions
12:00 AM 77.0 °F 69.8 °F 78% 29.76 in 10.0 mi NE 18.4 mph 28.8 mph N/A   Overcast
12:53 AM 77.0 °F 68.0 °F 74% 29.75 in 10.0 mi NE 19.6 mph 28.8 mph N/A   Scattered Clouds
1:53 AM 75.0 °F 68.0 °F 79% 29.74 in 9.0 mi ENE 21.9 mph 31.1 mph N/A   Overcast
2:16 AM 71.6 °F 69.8 °F 94% 29.73 in 9.0 mi NE 16.1 mph 26.5 mph 0.14 in Rain Light Rain
2:53 AM 73.9 °F 66.9 °F 79% 29.71 in 10.0 mi NE 18.4 mph 27.6 mph 0.14 in   Scattered Clouds
3:53 AM 72.0 °F 64.9 °F 78% 29.67 in 10.0 mi NNE 15.0 mph - 0.00 in   Mostly Cloudy
4:53 AM 73.9 °F 66.9 °F 79% 29.68 in 10.0 mi NE 26.5 mph 44.9 mph N/A   Mostly Cloudy
5:01 AM 71.6 °F 68.0 °F 88% 29.68 in 1.8 mi NNE 24.2 mph 46.0 mph 0.09 in Rain Heavy Rain
5:07 AM 71.6 °F 69.8 °F 94% 29.68 in 3.0 mi NNE 17.3 mph 31.1 mph 0.09 in Rain Light Rain
5:41 AM 71.6 °F 69.8 °F 94% 29.68 in 1.8 mi NE 25.3 mph 33.4 mph 0.25 in Rain Heavy Rain
5:53 AM 69.1 °F 68.0 °F 96% 29.67 in 2.5 mi NNE 15.0 mph 23.0 mph 0.33 in Rain Rain
6:53 AM 73.9 °F 70.0 °F 87% 29.65 in 10.0 mi NNE 20.7 mph 29.9 mph 0.01 in   Scattered Clouds
7:53 AM 75.0 °F 68.0 °F 79% 29.65 in 10.0 mi NNE 26.5 mph 32.2 mph 0.03 in   Scattered Clouds
9:53 AM 73.9 °F 70.0 °F 87% 29.66 in 8.0 mi NNE 24.2 mph 40.3 mph 0.02 in   Overcast
10:53 AM 75.0 °F 71.1 °F 87% 29.65 in 5.0 mi NNE 23.0 mph 34.5 mph 0.02 in   Overcast
11:03 AM 77.0 °F 68.0 °F 74% 29.65 in 5.0 mi NNE 28.8 mph 39.1 mph N/A   Mostly Cloudy
11:10 AM 75.2 °F 66.2 °F 73% 29.65 in 5.0 mi NNE 26.5 mph 39.1 mph N/A   Overcast
11:18 AM 77.0 °F 66.2 °F 69% 29.65 in 10.0 mi NNE 26.5 mph 36.8 mph N/A   Mostly Cloudy
11:53 AM 78.1 °F 66.9 °F 68% 29.63 in 10.0 mi North 26.5 mph 38.0 mph N/A   Mostly Cloudy
12:34 PM 73.4 °F 69.8 °F 88% 29.64 in 1.5 mi NNE 27.6 mph 47.2 mph 0.08 in Rain Rain
12:42 PM 71.6 °F 69.8 °F 94% 29.63 in 0.5 mi NNE 23.0 mph 55.2 mph 0.20 in Fog , Rain Heavy Rain
12:45 PM 71.6 °F 69.8 °F 94% 29.63 in 5.0 mi NNE 24.2 mph 46.0 mph 0.20 in Rain Light Rain
12:53 PM 73.9 °F 71.1 °F 91% 29.62 in 5.0 mi NNE 26.5 mph 36.8 mph 0.20 in   Mostly Cloudy
1:44 PM 73.4 °F 69.8 °F 88% 29.60 in 2.0 mi NNE 28.8 mph 40.3 mph 0.01 in Rain Light Rain
1:53 PM 73.0 °F 70.0 °F 90% 29.59 in 2.0 mi NNE 19.6 mph 40.3 mph 0.01 in Rain Light Rain
2:10 PM 71.6 °F 69.8 °F 94% 29.58 in 4.0 mi North 18.4 mph 32.2 mph 0.00 in Rain Light Rain
2:53 PM 73.0 °F 70.0 °F 90% 29.57 in 6.0 mi North 23.0 mph 32.2 mph 0.12 in Rain Light Rain
3:21 PM 73.4 °F 71.6 °F 94% 29.57 in 7.0 mi North 19.6 mph 25.3 mph 0.00 in Rain Light Rain
3:53 PM 73.9 °F 70.0 °F 87% 29.56 in 6.0 mi North 17.3 mph - 0.00 in   Overcast
4:53 PM 73.0 °F 68.0 °F 84% 29.55 in 4.0 mi NNE 23.0 mph 40.3 mph 0.00 in Rain Light Rain
5:53 PM 73.0 °F 64.9 °F 76% 29.54 in 4.0 mi North 21.9 mph 32.2 mph 0.00 in   Haze
6:25 PM 71.6 °F 68.0 °F 88% 29.55 in 2.0 mi North 21.9 mph 28.8 mph 0.05 in Rain Heavy Rain
6:38 PM 71.6 °F 69.8 °F 94% 29.56 in 3.0 mi North 23.0 mph 35.7 mph 0.07 in Rain Light Rain
6:53 PM 71.1 °F 69.1 °F 93% 29.55 in 4.0 mi NNW 15.0 mph 27.6 mph 0.07 in Rain Light Rain
7:44 PM 71.6 °F 68.0 °F 88% 29.55 in 4.0 mi North 24.2 mph 35.7 mph 0.00 in Rain Light Rain
7:53 PM 72.0 °F 68.0 °F 87% 29.55 in 10.0 mi North 20.7 mph 31.1 mph 0.00 in Rain Light Rain
8:53 PM 72.0 °F 68.0 °F 87% 29.56 in 10.0 mi North 20.7 mph 29.9 mph 0.02 in   Overcast
9:53 PM 72.0 °F 66.0 °F 81% 29.56 in 10.0 mi North 19.6 mph 32.2 mph N/A   Overcast
10:53 PM 71.1 °F 66.9 °F 87% 29.53 in 10.0 mi NW 15.0 mph - 0.00 in Rain Light Rain